Corinth, MS

8:09 PM CST on February 21, 2017 (GMT -0600)
Turner

Weather History for KCRX - March, 2014

Change the Weather History Date:

Friday, March 21, 2014

  Actual Average Record
Temperature  
Mean Temperature 50 °F -  
Max Temperature 69 °F 64 °F 85 °F (1966)
Min Temperature 32 °F 41 °F 17 °F (1965)
Degree Days  
Heating Degree Days 14    
Moisture  
Dew Point 34 °F    
Average Humidity 57    
Maximum Humidity 100    
Minimum Humidity 23    
Precipitation  
Precipitation 0.00 in - - ()
Sea Level Pressure  
Sea Level Pressure 30.03 in    
Wind  
Wind Speed 4 mph (South)    
Max Wind Speed 17 mph    
Max Gust Speed 23 mph    
Visibility 10 miles    
Events      
Averages and records for this station are not official NWS values.
T = Trace of Precipitation, MM = Missing Value Source: NWS Daily Summary

Daily Weather History Graph

Daily Weather History Graph

Search for Another Location

Airport or City:

Trip Planner

Search our weather history database for the weather conditions in past years. The results will help you decide how hot, cold, wet, or windy it might be!

Date:

Astronomy

Mar. 21, 2014 Rise Set
Actual Time 6:56 AM CDT 7:06 PM CDT
Civil Twilight 6:31 AM CDT 7:32 PM CDT
Nautical Twilight 6:01 AM CDT 8:01 PM CDT
Astronomical Twilight 5:32 AM CDT 8:31 PM CDT
Moon No Moon Rise 9:58 AM CDT (3/21)
Length of Visible Light 13h 00m
Length of Day
12h 10m
Waning Gibbous, 75% of the Moon is Illuminated
Mar 21
Waning Gibbous
Mar 23
Last Quarter
Mar 30
New
Apr 7
First Quarter
Apr 15
Full

Hourly Weather History & Observations

Time (CDT) Temp. Windchill Dew Point Humidity Pressure Visibility Wind Dir Wind Speed Gust Speed Precip Events Conditions
12:10 AM 39.2 °F - 35.6 °F 87% 30.09 in 10.0 mi Calm Calm - N/A   Clear
12:30 AM 39.2 °F - 33.8 °F 81% 30.09 in 10.0 mi Calm Calm - N/A   Clear
12:50 AM 39.2 °F - 33.8 °F 81% 30.09 in 10.0 mi Calm Calm - N/A   Clear
1:10 AM 39.2 °F - 33.8 °F 81% 30.10 in 10.0 mi Calm Calm - N/A   Clear
1:30 AM 37.4 °F - 33.8 °F 87% 30.10 in 10.0 mi Calm Calm - N/A   Clear
1:50 AM 37.4 °F - 33.8 °F 87% 30.10 in 10.0 mi Calm Calm - N/A   Clear
2:10 AM 39.2 °F - 33.8 °F 81% 30.11 in 10.0 mi Calm Calm - N/A   Clear
2:30 AM 37.4 °F - 33.8 °F 87% 30.10 in 10.0 mi Calm Calm - N/A   Clear
2:50 AM 35.6 °F 31.7 °F 32.0 °F 87% 30.09 in 10.0 mi SSE 4.6 mph - N/A   Clear
3:10 AM 35.6 °F 32.8 °F 32.0 °F 87% 30.08 in 10.0 mi SSE 3.5 mph - N/A   Clear
3:30 AM 35.6 °F - 32.0 °F 87% 30.07 in 10.0 mi Calm Calm - N/A   Clear
3:50 AM 37.4 °F - 33.8 °F 87% 30.06 in 10.0 mi Calm Calm - N/A   Clear
4:10 AM 35.6 °F - 33.8 °F 93% 30.07 in 10.0 mi Calm Calm - N/A   Clear
4:30 AM 35.6 °F - 32.0 °F 87% 30.08 in 10.0 mi Calm Calm - N/A   Clear
4:50 AM 33.8 °F - 32.0 °F 93% 30.09 in 10.0 mi Calm Calm - N/A   Clear
5:10 AM 32.0 °F 28.7 °F 32.0 °F 100% 30.09 in 10.0 mi ESE 3.5 mph - N/A   Partly Cloudy
5:30 AM 32.0 °F - 32.0 °F 100% 30.07 in 9.0 mi Calm Calm - N/A   Clear
5:50 AM 32.0 °F - 32.0 °F 100% 30.08 in 10.0 mi Calm Calm - N/A   Clear
6:10 AM 32.0 °F - 32.0 °F 100% 30.08 in 10.0 mi Calm Calm - N/A   Clear
6:30 AM 32.0 °F 27.5 °F 32.0 °F 100% 30.08 in 10.0 mi South 4.6 mph - N/A   Clear
6:50 AM 33.8 °F 30.8 °F 32.0 °F 93% 30.08 in 10.0 mi SSE 3.5 mph - N/A   Clear
7:10 AM 32.0 °F 28.7 °F 32.0 °F 100% 30.08 in 10.0 mi South 3.5 mph - N/A   Clear
7:30 AM 33.8 °F - 32.0 °F 93% 30.08 in 10.0 mi Calm Calm - N/A   Clear
7:50 AM 35.6 °F - 32.0 °F 87% 30.09 in 10.0 mi Calm Calm - N/A   Clear
8:10 AM 37.4 °F - 32.0 °F 81% 30.09 in 10.0 mi Calm Calm - N/A   Clear
8:30 AM 41.0 °F 38.0 °F 35.6 °F 81% 30.09 in 10.0 mi SSE 4.6 mph - N/A   Clear
8:50 AM 44.6 °F 43.1 °F 35.6 °F 71% 30.10 in 10.0 mi SE 3.5 mph - N/A   Clear
9:10 AM 46.4 °F 44.3 °F 35.6 °F 66% 30.10 in 10.0 mi SE 4.6 mph - N/A   Clear
9:30 AM 50.0 °F - 35.6 °F 58% 30.10 in 10.0 mi SSE 4.6 mph - N/A   Clear
9:50 AM 53.6 °F - 33.8 °F 47% 30.10 in 10.0 mi SE 6.9 mph - N/A   Clear
10:10 AM 55.4 °F - 33.8 °F 44% 30.10 in 10.0 mi SSE 6.9 mph - N/A   Clear
10:30 AM 57.2 °F - 33.8 °F 41% 30.10 in 10.0 mi SSE 6.9 mph - N/A   Clear
10:50 AM 60.8 °F - 33.8 °F 36% 30.09 in 10.0 mi South 6.9 mph - N/A   Clear
11:10 AM 62.6 °F - 32.0 °F 32% 30.08 in 10.0 mi South 10.4 mph - N/A   Clear
11:30 AM 64.4 °F - 32.0 °F 30% 30.08 in 10.0 mi South 11.5 mph - N/A   Clear
11:50 AM 64.4 °F - 32.0 °F 30% 30.07 in 9.0 mi South 11.5 mph - N/A   Clear
12:10 PM 66.2 °F - 32.0 °F 28% 30.06 in 10.0 mi South 13.8 mph 18.4 mph N/A   Clear
12:30 PM 66.2 °F - 32.0 °F 28% 30.05 in 10.0 mi South 13.8 mph 17.3 mph N/A   Clear
12:50 PM 66.2 °F - 32.0 °F 28% 30.04 in 10.0 mi South 15.0 mph 23.0 mph N/A   Clear
1:10 PM 66.2 °F - 30.2 °F 26% 30.04 in 10.0 mi South 17.3 mph - N/A   Clear
1:30 PM 66.2 °F - 28.4 °F 24% 30.03 in 10.0 mi South 12.7 mph 19.6 mph N/A   Clear
1:50 PM 68.0 °F - 28.4 °F 23% 30.02 in 10.0 mi South 15.0 mph 20.7 mph N/A   Clear
2:10 PM 66.2 °F - 30.2 °F 26% 30.01 in 10.0 mi SSW 12.7 mph 17.3 mph N/A   Clear
2:30 PM 66.2 °F - 32.0 °F 28% 29.99 in 10.0 mi South 9.2 mph - N/A   Clear
2:50 PM 68.0 °F - 32.0 °F 26% 29.99 in 10.0 mi South 8.1 mph 20.7 mph N/A   Clear
3:10 PM 68.0 °F - 32.0 °F 26% 29.98 in 10.0 mi South 11.5 mph - N/A   Clear
3:30 PM 68.0 °F - 32.0 °F 26% 29.97 in 10.0 mi SSW 10.4 mph - N/A   Clear
3:50 PM 69.8 °F - 32.0 °F 25% 29.97 in 10.0 mi South 12.7 mph - N/A   Clear
4:10 PM 69.8 °F - 33.8 °F 27% 29.96 in 10.0 mi South 6.9 mph - N/A   Clear
4:30 PM 69.8 °F - 35.6 °F 28% 29.96 in 10.0 mi South 11.5 mph - N/A   Clear
4:50 PM 69.8 °F - 35.6 °F 28% 29.96 in 10.0 mi South 9.2 mph - N/A   Clear
5:10 PM 68.0 °F - 35.6 °F 30% 29.96 in 10.0 mi South 11.5 mph - N/A   Clear
5:30 PM 69.8 °F - 37.4 °F 31% 29.95 in 10.0 mi South 8.1 mph - N/A   Clear
5:50 PM 68.0 °F - 35.6 °F 30% 29.95 in 10.0 mi SSE 4.6 mph - N/A   Clear
6:10 PM 68.0 °F - 37.4 °F 33% 29.95 in 10.0 mi SW 8.1 mph - N/A   Clear
6:30 PM 68.0 °F - 33.8 °F 28% 29.95 in 10.0 mi SSW 6.9 mph - N/A   Clear
6:50 PM 68.0 °F - 33.8 °F 28% 29.94 in 10.0 mi South 4.6 mph - N/A   Clear
7:10 PM 66.2 °F - 33.8 °F 30% 29.94 in 9.0 mi South 5.8 mph - N/A   Clear
7:30 PM 64.4 °F - 33.8 °F 32% 29.94 in 10.0 mi South 5.8 mph - N/A   Clear
7:50 PM 62.6 °F - 35.6 °F 37% 29.94 in 10.0 mi South 5.8 mph - N/A   Clear
8:10 PM 60.8 °F - 35.6 °F 39% 29.94 in 10.0 mi South 4.6 mph - N/A   Clear
8:30 PM 59.0 °F - 37.4 °F 45% 29.94 in 10.0 mi South 6.9 mph - N/A   Clear
8:50 PM 60.8 °F - 37.4 °F 42% 29.96 in 10.0 mi SSW 6.9 mph - N/A   Clear
9:10 PM 62.6 °F - 37.4 °F 39% 29.96 in 10.0 mi SSW 6.9 mph - N/A   Clear
9:30 PM 59.0 °F - 37.4 °F 45% 29.97 in 10.0 mi SSW 4.6 mph - N/A   Clear
9:50 PM 53.6 °F - 42.8 °F 67% 29.98 in 10.0 mi Calm Calm - N/A   Clear
10:10 PM 53.6 °F - 39.2 °F 58% 29.98 in 10.0 mi Calm Calm - N/A   Clear
10:30 PM 51.8 °F - 39.2 °F 62% 29.99 in 10.0 mi Calm Calm - N/A   Clear
10:50 PM 50.0 °F - 39.2 °F 66% 29.99 in 10.0 mi Calm Calm - N/A   Clear
11:10 PM 50.0 °F - 39.2 °F 66% 29.99 in 10.0 mi Calm Calm - N/A   Clear
11:30 PM 48.2 °F - 39.2 °F 71% 29.98 in 10.0 mi SSE 6.9 mph - N/A   Clear
11:50 PM 44.6 °F 43.1 °F 39.2 °F 81% 29.98 in 10.0 mi South 3.5 mph - N/A   Clear